Wind_Speed
36 34 32 31 31 31 29 28 28 28 27 26 24 23 23 22 20 18 16 14 15 16 17 16 15 14 14 17 20 19 15 13 11 11 14 16 16 16 16 17 17 16
37 36 34 32 32 32 32 31 30 29 27 25 23 22 23 23 21 19 18 16 16 17 18 18 16 14 14 18 21 20 17 15 13 13 15 16 17 18 17 17 18 18
38 37 36 34 33 33 33 33 32 30 28 25 24 24 24 24 22 21 20 18 18 18 18 18 16 15 15 18 21 22 19 17 15 15 14 15 17 19 18 17 17 16
39 38 37 35 34 34 34 34 34 32 29 27 26 25 25 25 24 23 22 21 21 20 19 18 16 16 16 17 21 23 22 20 18 17 16 16 17 19 18 16 16 15
40 39 37 37 36 35 35 35 35 33 31 29 28 27 26 25 25 25 25 24 23 22 20 18 16 16 16 16 19 22 24 22 20 20 20 17 17 19 19 18 18 17
42 40 39 38 37 37 37 37 36 34 33 31 30 29 28 26 26 26 27 26 24 24 23 20 17 16 16 17 18 20 22 22 22 23 22 20 18 19 19 21 22 21
43 42 40 39 38 38 38 38 37 36 34 33 32 31 30 29 28 28 28 27 26 25 25 22 18 17 18 18 19 20 21 21 22 23 23 22 20 20 20 21 22 23
45 43 42 40 39 39 39 38 38 37 36 35 35 33 31 31 30 29 29 28 27 26 26 24 21 20 20 20 21 21 21 21 22 23 24 23 22 21 20 20 21 22
45 44 43 42 41 40 40 39 39 39 38 38 37 35 33 32 32 31 30 30 29 28 27 26 25 23 23 23 23 22 22 22 22 23 23 23 23 22 20 21 22 21
46 46 45 44 43 42 41 40 40 40 40 40 39 37 36 34 33 33 32 32 32 31 30 29 29 27 25 25 24 24 24 23 22 23 23 23 23 22 21 22 22 21
48 47 46 45 44 43 42 42 41 41 41 41 40 39 38 37 36 35 35 35 34 34 33 32 31 30 28 27 26 26 25 24 24 24 23 23 23 23 22 22 22 22
49 48 48 47 45 44 43 43 42 42 42 42 42 41 40 38 38 37 37 37 36 36 35 34 34 33 31 29 28 27 27 26 26 26 25 24 25 24 23 23 23 22
51 50 49 48 47 45 44 44 43 43 43 43 42 42 41 41 40 39 39 39 38 37 36 36 36 35 34 32 30 29 29 29 28 27 27 27 27 26 25 24 24 23
52 51 50 49 47 46 45 44 44 44 44 43 43 43 42 42 41 41 40 40 39 38 38 37 38 38 37 35 33 31 30 31 30 29 29 29 29 29 27 26 25 24
52 51 51 49 48 47 46 45 44 44 44 44 43 43 42 41 41 41 41 41 41 40 39 39 40 40 39 37 35 33 32 32 31 30 30 30 31 30 29 28 26 25
52 52 51 50 49 48 46 45 44 44 44 44 44 42 41 40 40 41 41 41 41 41 40 41 41 41 40 39 36 34 33 33 33 32 31 31 31 31 30 28 27 25
52 52 52 50 50 48 47 46 44 43 43 44 43 42 40 38 39 40 41 41 41 41 40 41 41 41 41 40 38 35 33 34 34 32 31 32 32 32 30 29 27 26
51 51 51 51 50 49 48 46 44 43 43 43 43 41 39 38 38 39 39 40 40 40 39 39 39 39 40 40 38 35 33 35 36 33 31 33 34 32 31 30 28 26
49 49 50 50 50 49 48 47 45 44 44 43 42 41 39 38 38 38 38 38 38 38 38 37 37 37 39 39 37 34 32 35 39 36 32 33 34 33 31 30 28 26
49 49 48 48 48 48 48 47 46 45 44 43 42 40 39 39 38 38 38 38 37 37 37 37 37 36 37 37 36 32 30 34 38 37 34 33 33 32 31 30 28 26
51 50 48 47 46 46 46 47 46 45 44 43 41 40 40 39 39 38 38 38 37 37 37 38 38 36 36 35 33 30 28 32 37 37 34 34 33 31 30 29 27 26
53 52 50 48 46 45 45 45 45 45 44 43 42 41 40 39 38 38 38 37 37 37 38 38 37 36 35 33 30 26 26 30 36 36 34 34 33 31 30 28 25 25
54 53 51 48 46 45 44 44 44 44 43 42 42 41 41 40 39 38 37 36 35 37 38 38 37 35 33 31 27 25 24 28 33 35 34 34 34 33 30 27 25 26
54 53 52 50 48 46 44 44 43 42 41 40 40 41 41 41 40 38 37 37 37 37 37 37 35 33 31 29 26 24 25 26 30 32 33 33 34 32 29 26 26 27
54 53 52 51 49 47 45 44 43 40 38 38 38 39 39 39 38 38 38 37 37 36 35 33 31 29 28 27 24 24 25 26 27 29 31 32 34 32 28 27 29 29
54 53 52 51 49 48 46 44 40 37 36 36 36 36 36 35 35 35 35 34 33 32 30 29 27 26 24 23 23 23 23 25 26 26 27 30 32 30 26 27 30 32
Wind_Direction
217 216 217 217 217 217 217 214 212 215 219 221 223 222 221 224 225 223 223 222 221 219 218 220 219 217 220 214 211 217 220 218 220 219 207 195 191 193 190 190 194 193
217 215 216 217 218 217 216 217 218 221 223 224 226 224 219 223 225 225 227 223 219 220 221 222 222 217 216 213 211 216 218 214 217 217 207 199 195 199 201 197 198 202
217 215 215 218 218 216 215 217 220 225 226 225 225 222 217 219 223 224 227 226 220 222 223 222 220 215 213 211 211 216 219 217 219 219 211 208 205 205 208 203 198 201
216 215 216 218 220 218 216 217 220 224 225 224 223 219 215 217 220 223 226 226 224 225 223 217 214 213 211 207 207 214 220 221 224 224 217 214 213 212 214 206 195 197
216 216 216 218 220 219 217 218 220 221 222 223 223 219 216 216 217 222 225 224 225 226 221 214 211 211 211 209 206 210 218 221 222 224 222 217 214 215 216 210 204 207
216 216 216 217 219 220 219 219 220 222 221 221 223 222 219 218 219 223 224 222 225 226 221 217 215 212 213 215 211 210 216 217 215 218 222 220 217 215 215 213 212 213
216 215 215 217 219 220 219 220 221 223 222 222 223 224 223 222 223 224 224 223 226 229 228 227 226 222 219 219 217 213 214 216 213 214 218 221 220 217 215 217 217 216
216 215 216 218 220 220 219 220 222 223 223 223 224 225 225 225 225 225 226 227 230 233 235 237 236 232 226 222 220 216 215 216 214 214 216 218 219 220 217 217 218 217
216 215 216 219 220 220 220 220 221 222 223 225 225 226 227 228 228 229 230 231 234 236 239 242 240 236 231 227 223 219 216 217 215 214 217 216 217 219 216 217 218 217
216 216 216 219 221 221 221 221 221 221 223 225 226 227 228 229 230 231 232 233 235 237 239 242 242 239 235 231 227 223 219 219 216 215 217 217 218 219 217 219 221 221
216 216 216 219 221 221 221 221 221 220 222 224 226 227 228 229 230 231 233 234 236 238 240 242 243 242 239 235 232 228 224 221 219 218 218 219 220 221 220 221 224 223
216 216 217 219 221 222 221 221 221 221 222 224 226 227 228 229 231 233 235 236 238 240 242 244 245 244 242 240 237 232 229 225 222 221 221 222 222 222 223 224 226 225
216 217 218 219 221 223 222 221 221 222 222 224 226 227 228 230 232 234 237 239 240 242 245 246 246 245 244 242 239 236 233 230 226 224 224 224 225 224 224 226 228 227
218 218 219 220 221 223 222 221 222 222 223 225 225 226 228 231 233 235 237 239 242 244 246 246 246 245 243 240 239 238 237 234 231 228 226 226 226 226 226 228 228 227
219 219 218 219 221 222 222 222 222 223 222 224 226 227 229 231 234 236 237 239 241 243 244 244 244 243 242 241 240 239 239 238 235 233 230 227 227 227 228 230 230 228
218 218 217 218 219 221 222 222 223 223 222 223 226 228 229 231 233 236 238 240 242 242 243 243 243 244 244 244 242 241 242 242 238 236 234 231 230 230 230 232 234 232
218 217 217 217 219 221 222 222 223 223 222 223 225 227 229 230 233 237 240 242 244 244 245 245 245 246 246 245 244 242 244 243 241 240 240 237 233 232 234 236 237 235
218 217 217 218 219 220 221 222 222 222 222 222 224 226 228 229 232 237 241 243 245 245 246 246 248 250 248 246 244 243 244 244 242 243 243 240 237 234 235 237 238 238
219 218 217 218 219 220 221 221 220 220 221 222 223 226 228 230 233 236 240 242 244 245 247 248 251 252 250 247 245 244 244 245 245 245 243 241 239 237 237 238 239 239
220 220 219 219 219 219 219 220 219 219 220 221 222 224 227 230 232 235 238 241 243 246 249 251 253 253 251 248 245 244 246 247 248 247 244 241 241 240 240 240 240 240
219 220 220 219 219 219 219 220 220 219 218 219 221 224 226 229 232 235 238 240 243 247 250 251 252 253 252 249 245 246 248 249 249 247 244 242 242 242 242 241 241 242
217 218 218 218 218 218 218 219 219 219 218 219 220 223 226 229 231 234 236 239 243 248 249 249 249 251 251 249 247 249 250 249 249 247 244 243 242 241 242 241 241 243
214 215 215 216 216 216 217 218 219 219 218 219 220 222 225 228 229 232 236 239 243 246 246 246 247 249 251 250 250 253 251 250 252 250 245 242 240 240 240 239 239 241
212 212 213 214 215 216 217 217 216 217 218 219 221 223 225 228 229 232 236 239 241 243 243 244 245 248 250 250 251 254 255 255 255 253 247 241 238 238 239 237 239 239
210 209 211 213 215 216 216 216 214 215 217 219 221 223 225 228 230 233 235 236 237 239 240 241 243 246 248 249 251 255 257 256 255 252 249 243 239 239 239 236 238 239
208 208 210 212 215 215 214 214 215 216 217 218 219 221 223 226 229 231 232 232 233 234 236 239 243 244 244 246 248 251 253 254 252 250 250 245 240 240 241 239 241 243
Height
1521 1524 1527 1529 1531 1532 1534 1535 1536 1537 1538 1539 1541 1542 1543 1545 1547 1548 1549 1550 1551 1553 1553 1554 1556 1557 1558 1559 1559 1559 1560 1561 1561 1562 1562 1563 1563 1564 1564 1565 1566 1567
1518 1521 1524 1526 1528 1530 1531 1532 1533 1534 1536 1537 1539 1540 1542 1543 1545 1546 1547 1548 1550 1551 1552 1553 1554 1555 1556 1557 1557 1558 1558 1559 1560 1561 1561 1561 1562 1562 1562 1563 1563 1564
1515 1518 1520 1522 1524 1526 1528 1530 1531 1532 1534 1535 1537 1538 1540 1541 1542 1544 1545 1547 1548 1549 1550 1551 1552 1553 1554 1555 1556 1556 1557 1557 1558 1559 1560 1560 1560 1561 1561 1561 1562 1562
1512 1514 1517 1519 1521 1523 1525 1527 1528 1530 1531 1533 1534 1536 1538 1539 1541 1542 1543 1544 1546 1547 1548 1550 1551 1551 1552 1553 1554 1554 1555 1556 1557 1557 1558 1558 1558 1559 1560 1560 1560 1560
1508 1511 1514 1516 1518 1520 1522 1524 1525 1527 1528 1530 1532 1534 1535 1537 1538 1539 1540 1542 1543 1545 1546 1548 1549 1549 1550 1550 1551 1552 1552 1553 1555 1555 1555 1556 1556 1557 1558 1559 1559 1559
1506 1508 1510 1513 1514 1516 1519 1520 1522 1524 1526 1527 1529 1531 1533 1534 1536 1536 1538 1539 1541 1542 1543 1545 1546 1547 1548 1548 1549 1550 1550 1551 1552 1553 1553 1553 1554 1555 1556 1557 1557 1557
1502 1505 1507 1509 1511 1513 1515 1518 1519 1521 1523 1525 1526 1528 1530 1531 1533 1534 1535 1537 1538 1539 1541 1542 1544 1545 1545 1546 1546 1547 1548 1549 1550 1550 1550 1551 1552 1553 1554 1555 1555 1555
1499 1502 1504 1506 1508 1510 1512 1515 1516 1518 1520 1522 1523 1525 1527 1528 1530 1531 1532 1534 1535 1537 1538 1539 1541 1542 1543 1543 1544 1545 1545 1546 1547 1547 1548 1548 1549 1550 1551 1552 1553 1553
1496 1498 1500 1502 1504 1506 1509 1511 1513 1515 1517 1518 1520 1522 1524 1525 1527 1528 1529 1531 1532 1534 1535 1536 1537 1539 1540 1540 1541 1542 1542 1543 1544 1544 1545 1546 1546 1547 1548 1549 1550 1550
1492 1494 1497 1498 1500 1503 1505 1507 1510 1512 1514 1515 1517 1519 1521 1522 1524 1525 1527 1528 1529 1530 1531 1532 1534 1535 1536 1537 1538 1539 1539 1540 1541 1541 1542 1543 1543 1544 1545 1546 1546 1547
1488 1490 1492 1494 1496 1499 1501 1504 1506 1508 1510 1512 1514 1516 1518 1519 1521 1522 1523 1524 1525 1526 1527 1529 1530 1532 1533 1534 1535 1536 1537 1537 1538 1539 1539 1539 1540 1541 1541 1542 1543 1544
1484 1486 1488 1489 1492 1495 1497 1500 1502 1505 1506 1508 1510 1512 1514 1516 1517 1518 1519 1520 1522 1523 1524 1525 1526 1528 1529 1530 1532 1533 1534 1534 1535 1536 1536 1536 1537 1537 1538 1540 1541 1542
1479 1481 1483 1485 1488 1491 1493 1496 1498 1501 1502 1504 1506 1508 1510 1512 1513 1514 1515 1516 1518 1520 1521 1522 1523 1524 1525 1526 1528 1530 1531 1531 1532 1533 1533 1533 1533 1534 1536 1537 1539 1540
1474 1476 1479 1482 1485 1487 1490 1493 1495 1497 1498 1501 1503 1505 1506 1508 1509 1511 1512 1514 1515 1516 1517 1518 1519 1520 1521 1523 1524 1526 1528 1528 1529 1530 1530 1531 1532 1533 1534 1535 1536 1537
1470 1473 1476 1479 1482 1484 1487 1489 1491 1493 1495 1497 1500 1501 1503 1505 1506 1508 1509 1510 1512 1513 1514 1515 1516 1516 1517 1519 1521 1523 1524 1525 1527 1528 1528 1530 1531 1531 1532 1533 1534 1535
1467 1470 1473 1476 1478 1480 1483 1485 1488 1490 1492 1494 1496 1498 1501 1503 1504 1505 1506 1507 1508 1510 1511 1512 1512 1513 1514 1516 1519 1521 1522 1523 1524 1526 1527 1528 1528 1529 1529 1530 1531 1532
1464 1467 1469 1472 1474 1476 1478 1481 1484 1487 1489 1491 1492 1495 1498 1500 1501 1502 1503 1504 1505 1506 1508 1508 1509 1511 1512 1513 1516 1519 1521 1521 1522 1524 1525 1525 1525 1526 1526 1527 1529 1530
1460 1463 1465 1468 1470 1472 1475 1478 1481 1483 1485 1487 1489 1491 1494 1496 1498 1499 1499 1501 1502 1503 1505 1506 1507 1508 1509 1511 1513 1516 1519 1518 1519 1521 1522 1522 1522 1523 1524 1525 1526 1527
1457 1459 1462 1464 1466 1469 1472 1475 1478 1480 1482 1484 1486 1489 1491 1493 1494 1495 1497 1498 1500 1501 1502 1503 1504 1505 1505 1507 1510 1513 1516 1516 1515 1516 1518 1519 1520 1520 1522 1522 1523 1524
1453 1455 1457 1460 1463 1466 1469 1471 1474 1476 1479 1481 1484 1486 1489 1490 1491 1493 1494 1495 1496 1498 1499 1499 1499 1500 1501 1503 1506 1510 1513 1513 1512 1514 1516 1517 1517 1518 1519 1520 1521 1522
1448 1450 1453 1457 1460 1463 1466 1468 1471 1473 1476 1479 1481 1483 1485 1487 1488 1489 1490 1491 1493 1494 1494 1494 1495 1497 1498 1500 1503 1507 1510 1510 1510 1511 1513 1514 1515 1516 1517 1518 1519 1520
1443 1446 1449 1452 1456 1459 1462 1465 1468 1470 1473 1476 1478 1480 1482 1484 1485 1486 1487 1488 1490 1490 1491 1491 1493 1494 1495 1497 1500 1504 1507 1508 1507 1509 1511 1512 1513 1514 1515 1516 1517 1517
1438 1441 1445 1448 1452 1455 1458 1461 1463 1466 1469 1472 1475 1477 1479 1480 1481 1482 1484 1486 1487 1487 1488 1488 1489 1491 1493 1495 1498 1501 1504 1505 1505 1506 1508 1509 1511 1512 1513 1514 1515 1515
1433 1436 1440 1444 1447 1450 1453 1456 1459 1462 1466 1468 1471 1473 1475 1477 1478 1480 1482 1482 1483 1483 1483 1484 1486 1488 1490 1493 1496 1499 1501 1502 1502 1503 1505 1507 1508 1510 1511 1512 1513 1513
1428 1432 1436 1440 1443 1446 1449 1452 1455 1459 1462 1464 1466 1468 1470 1473 1476 1477 1478 1479 1480 1481 1482 1483 1485 1486 1489 1491 1493 1496 1497 1498 1500 1501 1502 1505 1506 1507 1509 1510 1510 1510
1424 1428 1432 1435 1439 1442 1445 1449 1452 1456 1459 1461 1463 1465 1467 1470 1473 1475 1477 1478 1480 1481 1482 1484 1485 1485 1487 1489 1490 1492 1494 1495 1497 1498 1500 1502 1504 1506 1508 1508 1508 1508